Location: *
(51.5000°N, 0.1100°W)
Time: 18:45:05
(UTC+00:00)

BREEZE-M DEB (TANK) - Pass Details

Date: 25 May 2024
Orbit: 300 x 14929 km, 49.5° (Epoch: 24 June)

Event Time Altitude Azimuth Distance (km) Brightness Sun altitude
Rises 01:10:17 0° 264° (W) 6,897 7.6 -15.7°
Reaches altitude 10° 01:16:42 10° 264° (W) 4,160 6.5 -15.4°
Maximum altitude 01:24:46 70° 183° (S) 699 2.6 -15.0°
Drops below altitude 10° 01:27:37 10° 98° (E) 1,505 4.7 -14.8°
Sets 01:28:57 0° 95° (E) 2,163 5.6 -14.8°
